This is the latest recevied weather packets stored in our database for station/object DK0KTL-4. If no packets are shown the sender has not sent any weather packets the latest 1 day(s).
| Time | Temp. | Humidity | Pressure | Rain* | Wind** | Luminosity | Snow |
|---|---|---|---|---|---|---|---|
| 1836274542 | 11.11° C | 92% | 1018.6 hPa | 0 mm | 0 m/s | - | - |
| 1778008879 | 16.11° C | 79% | 1005.2 hPa | 0 mm | 0.45 m/s, 146° | - | - |
| 1778008578 | 16.11° C | 79% | 1005.2 hPa | 0 mm | 0 m/s | - | - |
| 1778007978 | 16.11° C | 78% | 1004.4 hPa | 0 mm | 0.45 m/s, 29° | - | - |
| 1778007377 | 16.11° C | 77% | 1004.1 hPa | 0 mm | 0.89 m/s, 311° | - | - |
| 1778007076 | 16.11° C | 77% | 1004 hPa | 0 mm | 0.89 m/s, 271° | - | - |
| 1778006476 | 16.67° C | 76% | 1003.9 hPa | 0 mm | 0.89 m/s, 246° | - | - |
| 1778005275 | 16.67° C | 75% | 1004.4 hPa | 0 mm | 0.89 m/s, 199° | - | - |
| 1778004974 | 16.67° C | 75% | 1004.5 hPa | 0 mm | 0.89 m/s, 342° | - | - |
| 1778004374 | 16.67° C | 74% | 1004.5 hPa | 0 mm | 0.89 m/s, 56° | - | - |
| 1778003773 | 16.67° C | 75% | 1004.6 hPa | 0 mm | 0.45 m/s, 78° | - | - |
| 1778002572 | 17.22° C | 75% | 1004.7 hPa | 0 mm | 0.45 m/s, 247° | - | - |
| 1778002272 | 17.22° C | 75% | 1004.8 hPa | 0 mm | 0.45 m/s, 153° | - | - |
| 1778001672 | 17.22° C | 76% | 1004.9 hPa | 0 mm | 0.45 m/s, 254° | - | - |
| 1778000771 | 17.78° C | 74% | 1005.1 hPa | 0 mm | 0.45 m/s, 154° | - | - |
| 1778000470 | 17.78° C | 74% | 1005.1 hPa | 0 mm | 0.45 m/s, 253° | - | - |
| 1777999870 | 17.78° C | 74% | 1005.1 hPa | 0 mm | 0.45 m/s, 184° | - | - |
| 1777999569 | 17.78° C | 74% | 1005 hPa | 0 mm | 0.45 m/s, 316° | - | - |
| 1777998969 | 18.33° C | 72% | 1005.2 hPa | 0 mm | 0.45 m/s, 226° | - | - |
| 1777998669 | 18.33° C | 72% | 1005.2 hPa | 0 mm | 0.89 m/s, 286° | - | - |
| 1777998368 | 18.33° C | 71% | 1005.2 hPa | 0 mm | 0.89 m/s, 55° | - | - |
| 1777998068 | 18.33° C | 71% | 1005.3 hPa | 0 mm | 0.89 m/s, 206° | - | - |
| 1777997768 | 18.89° C | 70% | 1005.4 hPa | 0 mm | 0.89 m/s, 50° | - | - |
| 1777997167 | 18.89° C | 68% | 1005.4 hPa | 0 mm | 0.89 m/s, 46° | - | - |
| 1777996567 | 20° C | 69% | 1005.3 hPa | 0 mm | 0.45 m/s, 0° | - | - |
* Rain latest hour (hover to see other rain measurements)
** Current wind speed in m/s (hover to see current wind gust speed)